EW4725 Weather Reports


time (UTC)temp
C
wind
direction
speed
KPH
gust
KPH
rain 1hr
cm
rain 24hr
cm
rain mn
cm
humidity
%
barometer
mb
20260504050316 15 283 4.8 6.4 0.00 0.00 0.00 78 1015.0
20260504045816 15 260 4.8 8.0 0.00 0.00 0.00 79 1015.0
20260504045316 15 283 4.8 9.7 0.00 0.00 0.00 78 1015.0
20260504044816 15 260 4.8 8.0 0.00 0.00 0.00 78 1015.0
20260504044316 15 260 6.4 8.0 0.00 0.00 0.00 77 1015.0
20260504043836 15 260 4.8 11.3 0.00 0.00 0.00 77 1015.0
20260504043316 15 260 4.8 8.0 0.00 0.00 0.00 77 1014.9
20260504042816 15 260 6.4 9.7 0.00 0.00 0.00 76 1014.8
20260504042316 15 283 4.8 8.0 0.00 0.00 0.00 76 1015.0
20260504041836 15 260 3.2 6.4 0.00 0.00 0.00 76 1014.8
20260504041336 15 260 4.8 6.4 0.00 0.00 0.00 76 1014.7
20260504040816 15 283 6.4 8.0 0.00 0.00 0.00 76 1014.7
20260504040316 15 283 8.0 11.3 0.00 0.00 0.00 76 1014.7
20260504035816 15 260 8.0 12.9 0.00 0.00 0.00 75 1014.5
20260504035336 15 260 6.4 11.3 0.00 0.00 0.00 75 1014.4
20260504034816 15 283 1.6 3.2 0.00 0.00 0.00 75 1014.4
20260504034316 15 283 3.2 6.4 0.00 0.00 0.00 75 1014.6
20260504033816 15 260 3.2 4.8 0.00 0.00 0.00 74 1014.4
20260504033316 15 283 9.7 14.5 0.00 0.00 0.00 74 1014.4
20260504032856 15 305 9.7 14.5 0.00 0.00 0.00 74 1014.3
20260504032316 15 260 8.0 14.5 0.00 0.00 0.00 74 1014.2
20260504031816 15 283 8.0 12.9 0.00 0.00 0.00 74 1014.2
20260504031336 15 283 8.0 11.3 0.00 0.00 0.00 75 1014.1
20260504030816 15 260 3.2 3.2 0.00 0.00 0.00 75 1014.0
20260504030316 15 283 9.7 14.5 0.00 0.00 0.00 75 1013.9
20260504025816 16 260 8.0 11.3 0.00 0.00 0.00 75 1013.9
20260504025316 15 283 9.7 14.5 0.00 0.00 0.00 75 1014.0
20260504024816 15 283 9.7 16.1 0.00 0.00 0.00 75 1013.8
20260504024316 16 283 11.3 17.7 0.00 0.00 0.00 75 1013.8
20260504023816 16 260 12.9 16.1 0.00 0.00 0.00 75 1013.8
20260504023316 16 260 9.7 16.1 0.00 0.00 0.00 74 1013.8
20260504022816 16 260 12.9 20.9 0.00 0.00 0.00 74 1013.8
20260504022316 16 260 8.0 9.7 0.00 0.00 0.00 74 1013.8
20260504021836 16 260 11.3 16.1 0.00 0.00 0.00 74 1013.7
20260504021316 16 260 11.3 17.7 0.00 0.00 0.00 74 1013.6
20260504020816 16 260 9.7 12.9 0.00 0.00 0.00 74 1013.6
20260504020417 16 283 9.7 12.9 0.00 0.00 0.00 73 1013.3
20260504015816 16 260 9.7 14.5 0.00 0.00 0.00 72 1013.5
20260504015316 16 283 8.0 9.7 0.00 0.00 0.00 71 1013.4
20260504014816 16 260 9.7 14.5 0.00 0.00 0.00 71 1013.3
20260504014316 16 283 8.0 9.7 0.00 0.00 0.00 71 1013.3
20260504013816 16 260 8.0 9.7 0.00 0.00 0.00 71 1013.3
20260504013316 16 283 11.3 17.7 0.00 0.00 0.00 70 1013.2
20260504012836 16 260 8.0 12.9 0.00 0.00 0.00 70 1013.1
20260504012316 17 283 12.9 19.3 0.00 0.00 0.00 70 1013.2
20260504011836 17 260 9.7 12.9 0.00 0.00 0.00 70 1013.3
20260504011316 17 260 6.4 16.1 0.00 0.00 0.00 70 1013.2
20260504010836 17 260 8.0 11.3 0.00 0.00 0.00 70 1013.1
20260504010316 17 260 9.7 16.1 0.00 0.00 0.00 70 1013.1
20260504005816 17 283 8.0 14.5 0.00 0.00 0.00 71 1013.1
20260504005316 17 283 11.3 14.5 0.00 0.00 0.00 71 1013.0
20260504004816 17 283 8.0 12.9 0.00 0.00 0.00 71 1013.0
20260504004316 17 238 11.3 16.1 0.00 0.00 0.00 71 1013.1
20260504003836 17 283 6.4 8.0 0.00 0.00 0.00 72 1013.0
20260504003316 17 260 6.4 11.3 0.00 0.00 0.00 72 1012.9
20260504002816 17 283 8.0 11.3 0.00 0.00 0.00 72 1013.0
20260504002336 17 260 11.3 17.7 0.00 0.00 0.00 71 1013.0
20260504001816 17 283 6.4 9.7 0.00 0.00 0.00 72 1013.0
20260504001316 17 260 6.4 12.9 0.00 0.00 0.00 72 1012.9
20260504000816 17 283 4.8 9.7 0.00 0.00 0.00 72 1012.8
20260504000336 17 283 9.7 17.7 0.00 0.00 0.00 71 1012.8
20260503235816 17 305 11.3 19.3 0.00 0.00 0.00 71 1012.8
20260503235316 17 260 14.5 22.5 0.00 0.00 0.00 71 1012.6
20260503234816 17 305 8.0 9.7 0.00 0.00 0.00 70 1012.7
20260503234316 17 260 8.0 12.9 0.00 0.00 0.00 70 1012.8
20260503233816 17 283 9.7 14.5 0.00 0.00 0.00 69 1012.5
20260503233316 17 260 9.7 12.9 0.00 0.00 0.00 68 1012.6
20260503232816 17 260 9.7 12.9 0.00 0.00 0.00 67 1012.7
20260503232316 18 283 12.9 19.3 0.00 0.00 0.00 66 1012.9
20260503231816 18 305 12.9 19.3 0.00 0.00 0.00 66 1012.8
20260503231316 17 283 6.4 12.9 0.00 0.00 0.00 67 1013.0
20260503230816 17 305 11.3 17.7 0.00 0.00 0.00 65 1012.9
20260503230316 18 283 11.3 17.7 0.00 0.00 0.00 66 1013.1
20260503225836 18 283 6.4 9.7 0.00 0.00 0.00 64 1013.0
20260503225336 18 305 9.7 16.1 0.00 0.00 0.00 64 1013.1
20260503224816 18 283 9.7 12.9 0.00 0.00 0.00 63 1013.2
20260503224315 18 260 8.0 20.9 0.00 0.00 0.00 63 1013.2
20260503223816 18 283 9.7 16.1 0.00 0.00 0.00 62 1013.2
20260503223316 18 283 12.9 17.7 0.00 0.00 0.00 61 1013.3
20260503222816 18 305 8.0 11.3 0.00 0.00 0.00 60 1013.3
20260503222316 18 305 8.0 17.7 0.00 0.00 0.00 61 1013.4
20260503221815 18 283 6.4 14.5 0.00 0.00 0.00 60 1013.4
20260503221336 18 283 6.4 11.3 0.00 0.00 0.00 60 1013.4
20260503220815 18 283 8.0 9.7 0.00 0.00 0.00 60 1013.4
20260503220315 18 260 9.7 14.5 0.00 0.00 0.00 60 1013.5
20260503215816 18 283 12.9 19.3 0.00 0.00 0.00 59 1013.5
20260503215315 18 260 8.0 14.5 0.00 0.00 0.00 59 1013.6
20260503214816 18 283 6.4 8.0 0.00 0.00 0.00 60 1013.6
20260503214316 18 283 9.7 14.5 0.00 0.00 0.00 60 1013.5
20260503213836 18 305 11.3 14.5 0.00 0.00 0.00 60 1013.6
20260503213336 18 283 6.4 9.7 0.00 0.00 0.00 58 1013.6
20260503212816 19 260 9.7 16.1 0.00 0.00 0.00 58 1013.5
20260503212315 19 260 6.4 19.3 0.00 0.00 0.00 59 1013.6
20260503211815 19 260 9.7 11.3 0.00 0.00 0.00 58 1013.6
20260503211315 19 260 8.0 14.5 0.00 0.00 0.00 57 1013.6
20260503210815 19 305 8.0 11.3 0.00 0.00 0.00 57 1013.7
20260503210316 20 238 8.0 12.9 0.00 0.00 0.00 56 1013.7
20260503205815 20 260 9.7 12.9 0.00 0.00 0.00 56 1013.6
20260503205315 20 260 4.8 11.3 0.00 0.00 0.00 57 1013.6
20260503204815 20 238 4.8 8.0 0.00 0.00 0.00 58 1013.6
20260503204315 19 260 4.8 9.7 0.00 0.00 0.00 58 1013.5
20260503203816 20 283 8.0 14.5 0.00 0.00 0.00 57 1013.6
20260503203316 19 260 8.0 11.3 0.00 0.00 0.00 59 1013.6
20260503202815 20 125 3.2 4.8 0.00 0.00 0.00 59 1013.7
20260503202315 20 260 6.4 11.3 0.00 0.00 0.00 59 1013.7
20260503201816 20 170 8.0 11.3 0.00 0.00 0.00 59 1013.7
20260503201315 19 283 8.0 11.3 0.00 0.00 0.00 59 1013.7
20260503200816 20 260 11.3 16.1 0.00 0.00 0.00 59 1013.8
20260503200316 19 260 6.4 9.7 0.00 0.00 0.00 59 1013.8
20260503195815 20 283 8.0 12.9 0.00 0.00 0.00 57 1013.9
20260503195316 20 148 4.8 8.0 0.00 0.00 0.00 56 1013.9
20260503194855 20 170 1.6 4.8 0.00 0.00 0.00 56 1013.9
20260503194315 20 305 1.6 1.6 0.00 0.00 0.00 56 1014.0
20260503193815 20 148 3.2 3.2 0.00 0.00 0.00 56 1014.1
20260503193315 20 148 3.2 4.8 0.00 0.00 0.00 57 1014.0
20260503192815 20 215 3.2 4.8 0.00 0.00 0.00 57 1014.1
20260503192315 20 148 4.8 8.0 0.00 0.00 0.00 56 1014.1
20260503191815 20 148 6.4 9.7 0.00 0.00 0.00 56 1014.2
20260503191315 20 0.0 1.6 0.00 0.00 0.00 58 1014.2
20260503190815 20 148 1.6 16.1 0.00 0.00 0.00 57 1014.3
20260503190316 20 215 8.0 11.3 0.00 0.00 0.00 58 1014.3
20260503185816 20 260 4.8 9.7 0.00 0.00 0.00 59 1014.4
20260503185315 19 0.0 1.6 0.00 0.00 0.00 59 1014.4
20260503184855 19 125 1.6 3.2 0.00 0.00 0.00 60 1014.5
20260503184316 19 283 6.4 9.7 0.00 0.00 0.00 59 1014.5
20260503183815 19 148 3.2 6.4 0.00 0.00 0.00 60 1014.5
20260503183315 19 0.0 0.0 0.00 0.00 0.00 60 1014.6
20260503182815 18 148 3.2 6.4 0.00 0.00 0.00 61 1014.6
20260503182315 18 283 3.2 4.8 0.00 0.00 0.00 61 1014.6
20260503181815 18 125 1.6 3.2 0.00 0.00 0.00 62 1014.6
20260503181315 18 260 6.4 6.4 0.00 0.00 0.00 61 1014.7
20260503180815 18 260 3.2 4.8 0.00 0.00 0.00 62 1014.8
20260503180315 18 103 1.6 3.2 0.00 0.00 0.00 63 1014.7
20260503175815 18 170 3.2 4.8 0.00 0.00 0.00 64 1014.8
20260503175355 18 125 3.2 6.4 0.00 0.00 0.00 64 1014.7
20260503174817 18 260 1.6 4.8 0.00 0.00 0.00 65 1014.7
20260503174315 18 260 3.2 6.4 0.00 0.00 0.00 65 1014.7
20260503173838 18 238 3.2 8.0 0.00 0.00 0.00 66 1014.7
20260503173317 17 0.0 1.6 0.00 0.00 0.00 66 1014.7
20260503172817 18 215 3.2 4.8 0.00 0.00 0.00 67 1014.7
20260503172315 17 170 3.2 4.8 0.00 0.00 0.00 67 1014.5
20260503171817 18 148 3.2 8.0 0.00 0.00 0.00 68 1014.5
20260503171317 17 170 1.6 4.8 0.00 0.00 0.00 69 1014.4
20260503170837 17 193 4.8 8.0 0.00 0.00 0.00 68 1014.4
20260503170317 17 170 1.6 3.2 0.00 0.00 0.00 69 1014.4
20260503150817 16 283 3.2 6.4 0.00 0.00 0.00 80 1013.7
20260503150317 16 238 3.2 6.4 0.00 0.00 0.00 81 1013.6
20260503131317 15 283 1.6 3.2 0.00 0.00 0.00 85 1012.9
20260503130816 15 238 1.6 3.2 0.00 0.00 0.00 84 1012.9
20260503130316 15 260 1.6 4.8 0.00 0.00 0.00 82 1012.9
20260503110816 15 148 1.6 3.2 0.00 0.00 0.00 82 1012.7
20260503110317 15 193 3.2 3.2 0.00 0.00 0.00 81 1012.7
20260503090316 15 170 1.6 3.2 0.00 0.00 0.00 81 1013.2
20260503081316 15 170 1.6 1.6 0.00 0.00 0.00 85 1013.4
20260503080816 15 260 1.6 4.8 0.00 0.00 0.00 85 1013.3
20260503080316 15 238 1.6 3.2 0.00 0.00 0.00 85 1013.3
20260503072816 15 260 1.6 1.6 0.00 0.00 0.00 86 1013.1
20260503072416 15 260 1.6 1.6 0.00 0.00 0.00 86 1013.1
20260503071836 15 0.0 0.0 0.00 0.00 0.00 86 1013.1
20260503071316 15 0.0 0.0 0.00 0.00 0.00 86 1013.0
20260503070816 15 0.0 1.6 0.00 0.00 0.00 87 1013.0
20260503070316 15 0.0 0.0 0.00 0.00 0.00 87 1012.9